Date String (YYYY-MM-DD hh:mm:ss) UTC,Instrument flags,absolute air pressure of the measurement (hPa),sample flow rate (lpm),inlet stack bypass flow (lpm),air temperature of the measurement (°C),ambient temperature measured by the external sensor (°C),aerosol sample conditioner tube jacket temperature (°C),OPC LED temperature (°C),internal box temperature (°C),relative humidity of the measurement (%),span deviation,mass concentration of particles derived from Lorenz-Mie calculation of OPC scattering (μg/m³),mass concentration of particles derived from Lorenz-Mie calculation of OPC scattering (μg/m³),mass concentration of particles derived from Lorenz-Mie calculation of OPC scattering (μg/m³)
DateTimeUTC,F1_M11,P_M11,Q1_M11,Q2_M11,T1_M11,T2_M11,T3_M11,T4_M11,T5_M11,U1_M11,ZSPAN_M11,X0_M11,X2_M11,X1_M11
2023-08-03 19:00:00,SystemResetWarning,0833.8,4.99,000.00,031.2,025.5,000.0,038.6,030.7,32.2,0000.0,0011.46,0004.83,0004.27
2023-08-03 19:01:00,SystemResetWarning,0833.8,5.00,000.00,031.1,026.0,000.0,038.7,030.8,32.0,0000.0,0011.67,0004.83,0004.27
2023-08-03 19:02:00,SystemResetWarning,0833.7,5.02,000.00,031.1,026.4,000.0,038.8,030.9,31.8,0000.0,0011.55,0004.83,0004.25
2023-08-03 19:03:00,SystemResetWarning,0833.7,5.00,000.00,031.1,026.8,000.0,038.8,031.0,32.6,0000.0,0011.34,0004.83,0004.24
2023-08-03 19:04:00,SystemResetWarning,0833.7,4.99,000.00,031.1,027.2,000.0,038.9,031.1,32.4,0000.0,0011.04,0004.79,0004.22
2023-08-03 19:05:00,SystemResetWarning,0833.7,5.00,000.00,031.1,027.5,000.0,038.9,031.2,33.0,0000.0,0010.58,0004.78,0004.23
2023-08-03 19:06:00,SystemResetWarning,0833.7,4.99,000.00,031.1,027.0,000.0,038.8,031.2,32.4,0000.0,0010.42,0004.76,0004.23
2023-08-03 19:07:00,SystemResetWarning,0833.7,5.00,000.00,031.1,025.7,000.0,038.7,031.0,33.3,0000.0,0009.87,0004.77,0004.21
2023-08-03 19:08:00,SystemResetWarning,0833.7,5.01,000.00,031.0,025.2,000.0,038.6,030.9,32.9,0000.0,0009.73,0004.74,0004.19
2023-08-03 19:09:00,SystemResetWarning,0833.7,5.02,000.00,030.8,025.4,000.0,038.6,030.7,32.7,0000.0,0009.77,0004.74,0004.17
2023-08-03 19:10:00,SystemResetWarning,0833.7,5.00,000.00,030.7,025.7,000.0,038.7,030.7,32.4,0000.0,0009.90,0004.68,0004.13
2023-08-03 19:11:00,SystemResetWarning,0833.7,4.99,000.00,030.6,026.2,000.0,038.7,030.8,32.3,0000.0,0010.35,0004.60,0004.09
2023-08-03 19:12:00,SystemResetWarning,0833.7,5.00,000.00,030.6,026.6,000.0,038.7,030.9,32.7,0000.0,0010.14,0004.58,0004.07
2023-08-03 19:13:00,SystemResetWarning,0833.7,5.01,000.00,030.6,027.0,000.0,038.7,031.0,32.8,0000.0,0010.04,0004.61,0004.09
2023-08-03 19:14:00,SystemResetWarning,0833.7,5.01,000.00,030.6,027.3,000.0,038.7,031.0,32.6,0000.0,0010.14,0004.64,0004.09
2023-08-03 19:15:00,SystemResetWarning,0833.7,4.99,000.00,030.6,026.9,000.0,038.6,031.0,32.8,0000.0,0009.49,0004.68,0004.09
2023-08-03 19:16:00,SystemResetWarning,0833.6,4.98,000.00,030.5,025.6,000.0,038.5,030.8,33.8,0000.0,0009.51,0004.70,0004.08
2023-08-03 19:17:00,SystemResetWarning,0833.6,4.99,000.00,030.4,025.1,000.0,038.4,030.7,34.5,0000.0,0009.53,0004.70,0004.08
2023-08-03 19:18:00,SystemResetWarning,0833.6,5.04,000.00,030.4,025.2,000.0,038.4,030.6,34.8,0000.0,0009.33,0004.68,0004.07
2023-08-03 19:19:00,SystemResetWarning,0833.6,4.96,000.00,030.4,025.6,000.0,038.4,030.6,33.3,0000.0,0009.27,0004.65,0004.06
2023-08-03 19:20:00,SystemResetWarning,0833.6,5.01,000.00,030.4,026.1,000.0,038.4,030.7,33.0,0000.0,0009.12,0004.62,0004.04
2023-08-03 19:21:00,SystemResetWarning,0833.7,5.01,000.00,030.5,026.5,000.0,038.4,030.8,33.7,0000.0,0008.91,0004.60,0004.02
2023-08-03 19:22:00,SystemResetWarning,0833.7,4.99,000.00,030.5,026.9,000.0,038.4,030.9,33.1,0000.0,0008.33,0004.57,0003.99
2023-08-03 19:23:00,SystemResetWarning,0833.7,4.99,000.00,030.5,027.2,000.0,038.5,031.0,33.7,0000.0,0008.10,0004.52,0003.97
2023-08-03 19:24:00,SystemResetWarning,0833.7,5.00,000.00,030.5,027.4,000.0,038.5,031.0,33.6,0000.0,0007.96,0004.44,0003.93
2023-08-03 19:25:00,SystemResetWarning,0833.7,5.00,000.00,030.5,026.5,000.0,038.4,031.0,33.2,0000.0,0007.76,0004.36,0003.89
2023-08-03 19:26:00,SystemResetWarning,0833.6,5.00,000.00,030.5,025.3,000.0,038.3,030.8,33.5,0000.0,0007.63,0004.30,0003.85
2023-08-03 19:27:00,SystemResetWarning,0833.5,5.01,000.00,030.4,025.2,000.0,038.2,030.6,33.2,0000.0,0007.68,0004.25,0003.81
2023-08-03 19:28:00,SystemResetWarning,0833.5,5.01,000.00,030.3,025.4,000.0,038.3,030.5,33.1,0000.0,0007.87,0004.24,0003.76
2023-08-03 19:29:00,SystemResetWarning,0833.4,5.00,000.00,030.2,025.8,000.0,038.3,030.6,33.3,0000.0,0007.86,0004.21,0003.73
2023-08-03 19:30:00,SystemResetWarning,0833.4,5.00,000.00,030.1,026.3,000.0,038.3,030.7,34.2,0000.0,0007.73,0004.20,0003.71
2023-08-03 19:31:00,SystemResetWarning,0833.4,5.01,000.00,030.1,026.7,000.0,038.3,030.8,34.0,0000.0,0007.65,0004.18,0003.70
2023-08-03 19:32:00,SystemResetWarning,0833.4,5.01,000.00,030.1,027.1,000.0,038.3,030.9,33.8,0000.0,0007.90,0004.19,0003.70
2023-08-03 19:33:00,SystemResetWarning,0833.4,5.00,000.00,030.1,027.4,000.0,038.3,030.9,33.8,0000.0,0008.35,0004.21,0003.70
2023-08-03 19:34:00,SystemResetWarning,0833.4,4.99,000.00,030.1,027.2,000.0,038.3,031.0,34.1,0000.0,0008.79,0004.24,0003.69
2023-08-03 19:35:00,SystemResetWarning,0833.3,4.98,000.00,030.1,025.9,000.0,038.1,030.8,33.7,0000.0,0009.17,0004.24,0003.68
2023-08-03 19:36:00,SystemResetWarning,0833.4,5.01,000.00,030.0,025.1,000.0,038.0,030.6,34.1,0000.0,0009.96,0004.24,0003.67
2023-08-03 19:37:00,SystemResetWarning,0833.3,4.99,000.00,029.9,025.1,000.0,038.0,030.5,34.9,0000.0,0010.65,0004.22,0003.65
2023-08-03 19:38:00,SystemResetWarning,0833.3,5.01,000.00,029.9,025.5,000.0,038.0,030.5,35.7,0000.0,0010.56,0004.20,0003.64
2023-08-03 19:39:00,SystemResetWarning,0833.3,5.02,000.00,030.1,025.9,000.0,038.1,030.7,35.3,0000.0,0010.67,0004.15,0003.62
2023-08-03 19:40:00,SystemResetWarning,0833.4,4.98,000.00,030.3,026.4,000.0,038.1,030.9,34.4,0000.0,0010.66,0004.11,0003.60
2023-08-03 19:41:00,SystemResetWarning,0833.4,5.00,000.00,030.5,026.8,000.0,038.1,031.0,34.4,0000.0,0010.68,0004.11,0003.59
2023-08-03 19:42:00,SystemResetWarning,0833.4,5.01,000.00,030.7,027.1,000.0,038.2,031.0,34.4,0000.0,0010.62,0004.09,0003.57
2023-08-03 19:43:00,SystemResetWarning,0833.4,4.99,000.00,030.7,027.4,000.0,038.2,031.1,33.9,0000.0,0011.06,0004.10,0003.56
2023-08-03 19:44:00,SystemResetWarning,0833.3,4.99,000.00,030.8,026.7,000.0,038.2,031.0,33.4,0000.0,0011.16,0004.09,0003.53
2023-08-03 19:45:00,SystemResetWarning,0833.2,5.00,000.00,030.8,025.3,000.0,038.2,030.8,33.3,0000.0,0010.85,0004.07,0003.52
2023-08-03 19:46:00,SystemResetWarning,0833.2,5.00,000.00,030.7,024.9,000.0,038.1,030.6,33.3,0000.0,0010.80,0004.03,0003.50
2023-08-03 19:47:00,SystemResetWarning,0833.2,5.02,000.00,030.6,025.2,000.0,038.2,030.5,34.0,0000.0,0010.26,0004.01,0003.50
2023-08-03 19:48:00,SystemResetWarning,0833.2,4.99,000.00,030.5,025.6,000.0,038.3,030.5,34.7,0000.0,0009.40,0004.00,0003.50
2023-08-03 19:49:00,SystemResetWarning,0833.2,5.01,000.00,030.5,026.0,000.0,038.3,030.7,35.5,0000.0,0009.36,0003.99,0003.50
2023-08-03 19:50:00,SystemResetWarning,0833.2,5.02,000.00,030.7,026.5,000.0,038.4,030.9,35.2,0000.0,0008.77,0004.00,0003.51
2023-08-03 19:51:00,SystemResetWarning,0833.3,4.97,000.00,030.9,026.9,000.0,038.4,031.0,34.2,0000.0,0008.74,0004.01,0003.54
2023-08-03 19:52:00,SystemResetWarning,0833.3,5.01,000.00,031.1,027.2,000.0,038.4,031.1,34.6,0000.0,0008.60,0003.99,0003.56
2023-08-03 19:53:00,SystemResetWarning,0833.4,5.00,000.00,031.2,027.3,000.0,038.5,031.2,34.8,0000.0,0008.79,0004.01,0003.58
2023-08-03 19:54:00,SystemResetWarning,0833.4,5.01,000.00,031.3,026.0,000.0,038.4,031.0,34.6,0000.0,0009.31,0004.02,0003.61
2023-08-03 19:55:00,SystemResetWarning,0833.4,4.98,000.00,031.3,025.1,000.0,038.4,030.9,35.3,0000.0,0008.84,0004.05,0003.64
2023-08-03 19:56:00,SystemResetWarning,0833.4,5.04,000.00,031.4,025.0,000.0,038.4,030.8,35.1,0000.0,0008.82,0004.07,0003.67
2023-08-03 19:57:00,SystemResetWarning,0833.3,4.96,000.00,031.5,025.3,000.0,038.5,030.8,35.3,0000.0,0008.69,0004.16,0003.71
2023-08-03 19:58:00,SystemResetWarning,0833.4,5.05,000.00,031.7,025.8,000.0,038.6,030.9,34.5,0000.0,0008.40,0004.19,0003.75
2023-08-03 19:59:00,SystemResetWarning,0833.4,4.95,000.00,031.8,026.2,000.0,038.7,031.1,32.1,0000.0,0008.89,0004.25,0003.79
